Change the Weather History Date:

Sunday, December 8, 2013

  Actual Average Record
Temperature  
Mean Temperature 70 °F -  
Max Temperature 84 °F - - ()
Min Temperature 55 °F - - ()
Cooling Degree Days 4    
Growing Degree Days 20 (Base 50)    
Moisture  
Dew Point 56 °F    
Average Humidity 63    
Maximum Humidity 94    
Minimum Humidity 40    
Precipitation  
Precipitation 0.00 in - - ()
Sea Level Pressure  
Sea Level Pressure 30.05 in    
Wind  
Wind Speed 4 mph ()    
Max Wind Speed 16 mph    
Max Gust Speed -    
Visibility 6.2 miles    
Events      
T = Trace of Precipitation, MM = Missing Value Source: Averaged Metar Reports

Daily Weather History Graph

Daily Weather History Graph

Search for Another Location

Airport or City:

Trip Planner

Search our weather history database for the weather conditions in past years. The results will help you decide how hot, cold, wet, or windy it might be!

Date:

Astronomy

Dec. 08, 2013 Rise Set
Actual Time 4:46 AM AEST 6:36 PM AEST
Civil Twilight 4:19 AM AEST 7:02 PM AEST
Nautical Twilight 3:47 AM AEST 7:34 PM AEST
Astronomical Twilight 3:14 AM AEST 8:07 PM AEST
Moon 10:06 AM AEST (12/8) 11:03 PM AEST (12/8)
Length of Visible Light 14h 42m
Length of Day
13h 49m
Waxing Crescent, 33% of the Moon is Illuminated
Dec 8
Waxing Crescent
Dec 10
First Quarter
Dec 17
Full
Dec 25
Last Quarter
Jan 1
New

Hourly Weather History & Observations

Time (AEST) Temp. Heat Index Dew Point Humidity Pressure Visibility Wind Dir Wind Speed Gust Speed Precip Events Conditions
12:00 AM 62.6 °F - 53.6 °F 72% 30.09 in 6.2 mi South 3.5 mph - N/A   Unknown
12:30 AM 57.2 °F - 55.4 °F 94% 30.09 in 6.2 mi South 3.5 mph - N/A   Unknown
1:00 AM 59.0 °F - 55.4 °F 88% 30.09 in 6.2 mi Calm Calm - N/A   Unknown
1:30 AM - - - N/A% 0.00 in 6.2 mi West 1.2 mph - N/A   Unknown
2:00 AM 59.0 °F - 55.4 °F 88% 30.09 in 6.2 mi South 3.5 mph - N/A   Scattered Clouds
2:30 AM 57.2 °F - 53.6 °F 88% 30.09 in 6.2 mi Calm Calm - N/A   Scattered Clouds
3:00 AM 57.2 °F - 53.6 °F 88% 30.09 in 6.2 mi Calm Calm - N/A   Unknown
3:30 AM 57.2 °F - 53.6 °F 88% 30.09 in 6.2 mi Calm Calm - N/A   Unknown
4:00 AM 57.2 °F - 53.6 °F 88% 30.09 in 6.2 mi Calm Calm - N/A   Unknown
4:30 AM 55.4 °F - 53.6 °F 94% 30.09 in 6.2 mi Calm Calm - N/A   Unknown
5:00 AM 55.4 °F - 53.6 °F 94% 30.09 in 6.2 mi Calm Calm - N/A   Unknown
5:30 AM 57.2 °F - 53.6 °F 88% 30.09 in 6.2 mi Calm Calm - N/A   Unknown
6:00 AM 59.0 °F - 55.4 °F 88% 30.12 in 6.2 mi Calm Calm - N/A   Unknown
6:30 AM 64.4 °F - 55.4 °F 73% 30.12 in 6.2 mi SSW 2.3 mph - N/A   Unknown
7:00 AM 68.0 °F - 53.6 °F 60% 30.12 in 6.2 mi Calm Calm - N/A   Unknown
7:30 AM 69.8 °F - 55.4 °F 60% 30.12 in 6.2 mi SW 3.5 mph - N/A   Unknown
8:00 AM 71.6 °F - 57.2 °F 60% 30.12 in 6.2 mi Calm Calm - N/A   Unknown
8:30 AM 73.4 °F - 57.2 °F 57% 30.12 in 6.2 mi ESE 3.5 mph - N/A   Unknown
9:00 AM 75.2 °F - 57.2 °F 53% 30.09 in 6.2 mi NNW 6.9 mph - N/A   Scattered Clouds
9:30 AM 75.2 °F - 57.2 °F 53% 30.09 in 6.2 mi NNE 6.9 mph - N/A   Mostly Cloudy
10:00 AM 75.2 °F - 57.2 °F 53% 30.09 in 6.2 mi East 5.8 mph - N/A   Mostly Cloudy
10:30 AM 78.8 °F - 57.2 °F 47% 30.09 in 6.2 mi NE 5.8 mph - N/A   Scattered Clouds
11:00 AM 77.0 °F - 57.2 °F 50% 30.06 in 6.2 mi NE 6.9 mph - N/A   Mostly Cloudy
11:30 AM 78.8 °F - 57.2 °F 47% 30.06 in 6.2 mi NNE 5.8 mph - N/A   Scattered Clouds
12:00 PM 78.8 °F - 57.2 °F 47% 30.04 in 6.2 mi NE 6.9 mph - N/A   Scattered Clouds
12:30 PM 80.6 °F 80.8 °F 57.2 °F 45% 30.04 in 6.2 mi ENE 6.9 mph - N/A   Unknown
1:00 PM 80.6 °F 80.8 °F 57.2 °F 45% 30.01 in 6.2 mi East 5.8 mph - N/A   Scattered Clouds
1:30 PM 80.6 °F 80.8 °F 57.2 °F 45% 30.01 in 6.2 mi NE 5.8 mph - N/A   Scattered Clouds
2:00 PM 82.4 °F 82.0 °F 57.2 °F 42% 29.98 in 6.2 mi NNE 8.1 mph - N/A   Scattered Clouds
2:30 PM 84.2 °F 83.5 °F 57.2 °F 40% 29.98 in 6.2 mi ENE 13.8 mph - N/A   Unknown
3:00 PM 82.4 °F 82.5 °F 59.0 °F 45% 29.98 in 6.2 mi NE 12.7 mph - N/A   Unknown
3:30 PM 82.4 °F 82.0 °F 57.2 °F 42% 29.98 in 6.2 mi ENE 12.7 mph - N/A   Unknown
4:00 PM 82.4 °F 82.5 °F 59.0 °F 45% 29.95 in 6.2 mi ENE 12.7 mph - N/A   Unknown
4:30 PM 80.6 °F 80.8 °F 57.2 °F 45% 29.98 in 6.2 mi NE 10.4 mph - N/A   Unknown
5:00 PM 78.8 °F - 57.2 °F 47% 29.98 in 6.2 mi NE 15.0 mph - N/A   Unknown
5:30 PM 78.8 °F - 55.4 °F 44% 29.98 in 6.2 mi NE 15.0 mph - N/A   Unknown
6:00 PM 77.0 °F - 57.2 °F 50% 29.98 in 6.2 mi ENE 16.1 mph - N/A   Unknown
6:30 PM 75.2 °F - 55.4 °F 50% 29.98 in 6.2 mi ENE 16.1 mph - N/A   Unknown
7:00 PM 73.4 °F - 55.4 °F 53% 29.98 in 6.2 mi ENE 12.7 mph - N/A   Unknown
7:30 PM 71.6 °F - 55.4 °F 57% 30.01 in 6.2 mi ENE 15.0 mph - N/A   Unknown
8:00 PM 71.6 °F - 55.4 °F 57% 30.01 in 6.2 mi ENE 11.5 mph - N/A   Unknown
8:30 PM 69.8 °F - 55.4 °F 60% 30.01 in 6.2 mi ENE 10.4 mph - N/A   Unknown
9:00 PM 69.8 °F - 57.2 °F 64% 30.04 in 6.2 mi ENE 8.1 mph - N/A   Unknown
9:30 PM 68.0 °F - 57.2 °F 68% 30.04 in 6.2 mi ENE 6.9 mph - N/A   Unknown
10:00 PM 68.0 °F - 57.2 °F 68% 30.04 in 6.2 mi ENE 6.9 mph - N/A   Unknown
10:30 PM 66.2 °F - 57.2 °F 73% 30.04 in 6.2 mi East 5.8 mph - N/A   Unknown
11:00 PM 66.2 °F - 57.2 °F 73% 30.04 in 6.2 mi East 5.8 mph - N/A   Unknown
11:30 PM 66.2 °F - 57.2 °F 73% 30.04 in 6.2 mi East 8.1 mph - N/A   Unknown